OBJECT F, 57429

Orbit data source: Space-Track

You're viewing an Uncataloged Satellite

Recently launched and/or uncataloged satellites may have evolving metadata. Metadata may include but not limited to: Owner, Maufacturer, Bus, Motor, and Mission.

OBJECT F, 57429 is a Chinese satellite in SSO that was launched on Sun, 23 Jul 2023 UTC via a CHANG ZHENG 2D launch vehicle from the Taiyaun Space Center, China (TSC). Unknown objects in Earth's orbit typically refer to objects detected orbiting the Earth but have not yet been identified or cataloged. These objects could be anything from previously untracked satellites, spent rocket stages, debris from satellite collisions, or even natural meteoroids temporarily captured by Earth's gravity.

Loading next visibility...
Identifier
57429, 2023-104F
Orbit
SSO
Country
Flag of CNCN / PRC
Related business
None
Manufacturer
Unknown
Mission
Commercial Communications
Bus & Motor
Unknown
Mass
Unknown
Launch date (UTC)
2023-07-23 (3 years ago)
Launch vehicle
CHANG ZHENG 2D
Launch site
Taiyaun Space Center, China (TSC)
Object type
Unknown
Shape & HBR
Box + 1 Pan, 5.0 m
Radar Cross Section
16.383 m², Medium (>0.1 m² and < 1m²)

Expand to show TLE details & history
Last TLE update: 7 hours ago

TLE from 7 hours ago
0 OBJECT F
1 57429U 23104F   26036.49679235  .00034550  00000-0  67528-3 0  9997
2 57429  97.2731 109.4073 0021557 157.2283 202.9928 15.47120073142076
Epoch: 2026-02-05T11:55Z
TLE epoch observation values (Epoch: 2026-02-05T11:55:22.859Z)
Latitude
-0.00002°
Longitude
154.91388°
Altitude
441.795 km
Speed
7.639 km/s
True Right ascension
07h 17m 37s
True Declination
0° 00' 00"
Sunlit
Object was in full shadow at epoch
Visualization orbit readout
Latitude
Unknown
Longitude
Unknown
Altitude
Unknown
Speed
Unknown
Apparent Right ascension
Unknown
Apparent Declination
Unknown
Sunlit
N/A
Visualization observer readout
Local Sidereal Time
20:53:24
Azimuth
Unknown
Elevation
Unknown
Doppler factor
Unknown
Orbital elements
Apogee altitude
436.739 km
Perigee altitude
407.421 km
Semi-major axis
6,800.217 km
Eccentricity
0.00216
Inclination
97.2731°
RAAN
109.4073°
Arg. of periapsis
157.2283°
True anomaly
202.89655°
Mean anomaly
202.9928°
Eccentric anomaly
202.94465°
Mean motion
3.87043 °/min
Orbital period
93.01 mins
BSTAR
0.00067528
Loading maneuver chart data...
Computing Atmospheric mass density...
Loading historical data...
Loading historical data...
Loading historical data...
Loading historical data...
Loading historical data...
Loading historical data...
Loading historical data...
Other satellites on launch #104 in the year 2023 (2023-07-23 UTC)

Documentation

Showing up to 5 results
|